www.pogodaiklimat.ru

Погода и климат >> Архив погоды >> Канада >> Medicine Hat Arpt


ПОГОДА в Medicine Hat Arpt

  • Прогноз погоды в Medicine Hat Arpt
  • Монитор погоды в Medicine Hat Arpt
  • Климат города

АРХИВ ПОГОДЫ в Medicine Hat Arpt

Время (UTC), дата Ветер
(напр.,м/с)
 
Видим.   Явления Облачность Т
(С)
Тd
(С)
f
(%)
Тe
(С)
Тes
(С)
Комфортность P
(гПа)
Po
(гПа)
Тmin
(С)
Tmax
(С)
R
(мм)
R24
(мм)
S
(см)
09 14.10 ЮЗ 1 н/о н/о -16.1 -17.6 88 -19 -19 1009.8 1000.1
12 14.10 ЮЗ 3 н/о н/о -16.4 -17.9 88 -23 -23 1010.0 1000.3 -16.4 -15.0 10
15 14.10 ЮЗ 5 н/о н/о -16.7 -18.2 88 -26 -26 1009.9 1000.2
18 14.10 Ю 6 н/о н/о -17.4 -18.9 88 -28 -28 1009.8 1000.1 -17.4 -16.1
21 14.10 Ю 7 н/о н/о -17.5 -19.1 87 -29 -29 1010.1 1000.4
00 15.10 Ю 7 н/о н/о -18.5 -20.2 86 -30 -30 1010.6 1000.9 -18.5 -16.4
03 15.10 Ю 6 н/о н/о -19.6 -21.4 86 -31 -31 опасность
обморожения
1010.9 1001.2
06 15.10 ЮЗ 5 н/о н/о -20.1 -21.9 85 -30 -30 1010.4 1000.7 -20.2 -16.1 21
09 15.10 Ю 4 н/о н/о -20.0 -21.9 85 -29 -29 1010.2 1000.5
12 15.10 Ю 2 н/о н/о -21.9 -24.0 83 -27 -27 1009.9 1000.1 -22.0 -16.1 10
15 15.10 ЮЗ 1 н/о н/о -23.4 -25.6 82 -27 -27 1009.1 999.3
18 15.10 ЮЗ 2 н/о н/о -24.3 -26.6 81 -31 -31 опасность
обморожения
1008.5 998.7 -24.7 -19.9
21 15.10 ЮЗ 1 н/о н/о -23.6 -25.8 82 -27 -27 1009.0 999.2
00 16.10 Ю 4 н/о н/о -25.4 -27.9 80 -35 -35 опасность
обморожения
1009.5 999.7 -25.4 -21.8
03 16.10 ЮЗ 6 н/о н/о -26.3 -28.9 79 -39 -39 опасность
обморожения
1010.1 1000.2
06 16.10 ЮЗ 7 н/о н/о -27.0 -29.5 79 -41 -41 опасность
обморожения
1010.8 1000.9 -27.2 -19.9 5
09 16.10 Ю 6 н/о н/о -26.1 -28.6 79 -39 -39 опасность
обморожения
1012.1 1002.2
12 16.10 ЮЗ 6 н/о н/о -26.5 -29.0 79 -39 -39 опасность
обморожения
1012.9 1003.0 -27.3 -19.9 11
15 16.10 Ю 2 н/о н/о -26.3 -28.9 79 -33 -33 опасность
обморожения
1013.2 1003.3
18 16.10 Ю 2 н/о н/о -23.6 -25.9 81 -30 -30 1013.0 1003.1 -27.5 -23.5
21 16.10 ЮЗ 2 н/о н/о -22.2 -24.2 84 -27 -27 1012.4 1002.5
00 17.10 ЮЗ 2 н/о н/о -21.5 -23.4 85 -28 -28 1011.5 1001.6 -27.5 -21.1 0.2
03 17.10 Ю 4 н/о н/о -23.6 -25.9 81 -33 -33 опасность
обморожения
1011.1 1001.2 0.3
06 17.10 ЮЗ 4 н/о н/о -23.3 -25.5 82 -32 -32 опасность
обморожения
1011.2 1001.3 -27.5 -21.1 0.3 8
09 17.10 ЮЗ 6 н/о н/о -23.9 -26.2 81 -36 -36 опасность
обморожения
1011.9 1002.1
12 17.10 Ю 6 н/о н/о -23.2 -25.3 83 -35 -35 опасность
обморожения
1012.3 1002.5 -25.4 -21.1 10
15 17.10 ЮЗ 6 н/о н/о -25.7 -28.1 80 -38 -38 опасность
обморожения
1012.7 1002.8
18 17.10 ЮЗ 5 н/о н/о -25.8 -28.2 80 -37 -37 опасность
обморожения
1013.2 1003.3 -26.4 -23.0
21 17.10 ЮЗ 4 н/о н/о -25.6 -28.1 79 -36 -36 опасность
обморожения
1013.7 1003.8
00 18.10 ЮЗ 4 н/о н/о -23.2 -25.4 82 -32 -32 опасность
обморожения
1013.7 1003.8 -26.4 -23.0
03 18.10 ЮЗ 3 н/о н/о -21.0 -22.9 85 -28 -28 1013.1 1003.2
06 18.10 СЗ 1 н/о н/о -23.3 -25.6 81 -27 -27 1012.3 1002.4 -26.4 -20.5
09 18.10 СЗ 2 н/о н/о -23.7 -26.0 81 -30 -30 1011.3 1001.4
12 18.10 СЗ 1 н/о н/о -24.9 -27.3 80 -29 -29 1010.6 1000.7 -27.3 -20.5 1 10
15 18.10 С 3 н/о н/о -27.7 -30.4 78 -37 -37 опасность
обморожения
1010.0 1000.1
18 18.10 ЮЗ 3 н/о н/о -29.8 -32.7 76 -39 -39 опасность
обморожения
1010.3 1000.4 -30.2 -22.6
21 18.10 ЮЗ 5 н/о н/о -28.4 -31.2 77 -40 -40 опасность
обморожения
1011.5 1001.6
00 19.10 ЮЗ 5 н/о н/о -27.0 -29.6 78 -39 -39 опасность
обморожения
1011.7 1001.8 -30.2 -24.9 0.3
03 19.10 ЮЗ 4 н/о {осадки} н/о -27.8 -30.5 78 -38 -38 опасность
обморожения
1012.0 1002.0 0.2
06 19.10 ЮЗ 3 н/о {осадки} н/о -28.4 -31.2 77 -38 -38 опасность
обморожения
1012.0 1002.0 -30.2 -22.6 0.4
09 19.10 СЗ 2 н/о н/о -26.3 -28.9 79 -33 -33 опасность
обморожения
1012.4 1002.4
12 19.10 С 1 н/о н/о -28.6 -31.4 77 -33 -33 опасность
обморожения
1012.6 1002.6 -28.7 -22.6 10
15 19.10 С 2 н/о н/о -28.6 -31.4 77 -36 -36 опасность
обморожения
1012.7 1002.7
18 19.10 В 1 н/о н/о -27.3 -30.0 78 -31 -31 опасность
обморожения
1012.9 1002.9 -30.0 -25.8
21 19.10 штиль 0 н/о н/о -26.5 -29.1 79 -27 -27 1013.6 1003.7
00 20.10 С 2 н/о н/о -26.2 -28.7 79 -32 -32 опасность
обморожения
1014.2 1004.2 -29.4 -26.2
03 20.10 С 1 н/о н/о -25.7 -28.1 80 -29 -29 1014.2 1004.2
06 20.10 штиль 0 н/о н/о -25.5 -27.9 80 -26 -26 1014.8 1004.8 -29.4 -25.4
09 20.10 ЮЗ 1 н/о н/о -26.2 -28.7 79 -27 -27 1015.2 1005.2
12 20.10 ЮЗ 2 н/о н/о -27.2 -29.9 78 -33 -33 опасность
обморожения
1015.4 1005.4 -27.2 -25.4 10
15 20.10 ЮЗ 2 н/о н/о -27.3 -29.9 78 -33 -33 опасность
обморожения
1015.4 1005.4

 

Местоположение метеостанции Medicine Hat Arpt (Канада): широта 50.02 долгота -110.70 высота над уровнем моря 716 м.

В архиве по умолчанию представлена погода в Medicine Hat Arpt за последнюю неделю. Архивные данные за месяц целиком и за предыдущие месяцы, начиная с января 2011 года, Вы можете получить, выбрав интересующий диапазон дат из раскрывающегося списка и нажав кнопку "Ввод!".

Внимание! Время в таблицах - всемирное. Для получения местного времени необходимо прибавить поправку, которая в Medicine Hat Arpt равна -7 ч.

Смотрите также архив погоды в соседних городах и на ближайших метеорологических станциях:

Погода в Seven Persons Agdm (Канада) (18 км)
Погода в Irvine Agcm (Канада) (32 км)
Погода в Bow Island Agdm (Канада) (46 км)
Погода в Schuler Radar (Канада) (48 км)
Погода в Schuler Agdm (Канада) (59 км)
Погода в Bow Island (Канада) (60 км)
Погода в Grassy Lake (Канада) (73 км)
Погода в Foremost Agdm (Канада) (79 км)
Погода в Etzicom Agcm (Канада) (81 км)
Погода в Atlee (Канада) (89 км)

Пояснения к столбцам:

Ветер - указаны скорость ветра в м/с - средняя за 10 мин, порывы в срок и между сроками (в фигурных скобках) и направление, откуда дует ветер: С - северный, СВ - северо-восточный, В - восточный, ЮВ - юго-восточный, Ю - южный, ЮЗ - юго-западный, З - западный, СЗ - северо-западный.
Видимость - горизонтальная дальность видимости в метрах или километрах. При видимости от 1 до 10 км при отсутствии осадков обычно наблюдается дымка, при ухудшении видимости до 1 км и менее - туман. В сухую погоду видимость может ухудшаться дымом, пылью или мглою.
Явления - указаны атмосферные явления, наблюдавшиеся в срок или в последний час перед сроком; фигурными скобками обозначены явления, наблюдавшиеся между сроками (за 1-3 часа до срока); квадратными скобками обозначены град или гололедные отложения с указанием их диаметра в мм.
Облачность - указаны через наклонную черту общая и нижняя облачность в баллах и высота нижней границы облаков в метрах; квадратными скобками обозначены формы облаков: Ci - перистые, Cs - перисто-слоистые, Cc - перисто-кучевые, Ac - высококучевые, As - высокослоистые, Sc - слоисто-кучевые, Ns - слоисто-дождевые, Cu - кучевые, Cb - кучево-дождевые. Подробнее классификацию облаков см. в Атласе облаков (PDF).
T - Температура воздуха - температура, измеренная на высоте 2 м над землей.
Td - Температура точки росы - температура, при понижении до которой содержащийся в воздухе водяной пар достигнет насыщения.
f - Относительная влажность воздуха - влажноcть воздуха, измеренная на высоте 2 м над землей.
Te - Эффективная температура - температура, которую ощущает одетый по сезону человек в тени. Характеристика душности погоды. При расчете учитывается влияние влажности воздуха и скорости ветра на теплоощущения человека.
Tes - Эффективная температура на солнце - температура, которую ощущает человек, с поправкой на солнечный нагрев. Характеристика знойности погоды. Зависит от высоты солнца над горизонтом, облачности и скорости ветра. Ночью, в пасмурную погоду, а также при ветре 12 м/с и более поправка равна нулю.
P - Атмосферное давление - приведенное к уровню моря атмосферное давление.
Po - Атмосферное давление - измеренное на уровне метеостанции атмосферное давление.
Tmin - Минимальная температура - минимум температуры воздуха на высоте 2 м над землей.
Tmax - Максимальная температура - максимум температуры воздуха на высоте 2 м над землей.
R - Количество осадков - Количество выпавших осадков за период времени, мм. При наведении курсора мыши на число - период времени, за который выпало указанное количество осадков.
R24 - Количество осадков - Количество выпавших осадков за 24 часа, мм.
S - Снежный покров - Высота снежного покрова, см. При наведении курсора мыши на число - состояние снежного покрова и степень покрытия местности в баллах.